Zurück zum Katalog

STARLINK-3723

AktivKommunikationVLEO
NORAD 52138·PAYLOAD·🇺🇸 United States

Gestartet Mar 19, 2022 von Cape Canaveral Space Force Station

Loading…

Nächste Überflüge (nächste 24 Stunden)

TLE

AktuellSource: CelesTrak SupGP

Epoche: Sep 14, 2026, 21:10 UTC

1 52138C 22029BC  26257.88243056 -.00017540  00000+0 -53233-3 0  2576
2 52138  53.1589 295.7721 0001154  90.9337  77.1521 15.33551707    18

Verfolge STARLINK-3723 in Echtzeit mit AllMySat

Download on the App Store